Aérodrome :
LOGIN :

S'inscrire | Disclaimer

   EN    FR    IT 

 










Légende :    VFR   VFR Marginal   IFR   IFR Intensif   IFR Très Intensif
Visi : 
Plafond : 
>= 8 km
>= 3000ft
5 à 8 km
1000 à 3000 ft
1500m à 5 km
500 à 1000 ft
800 à 1500m
200 à 500 ft
< 800m
< 200 ft
Symboles :   Orages  Brouillard  Fortes neiges  Fortes précipitations  Vent > 20 kt
SIGMETs :   Divers  Orages  Givrage  Turbulence  Onde Orograph.  Cendres Volcan.







- Altitude de l'aérodrome : 1708 ft
- Code IATA : SJJ


LQSA - Sarajevo

DERNIER METAR :
  • 162300Z 13002KT CAVOK 07/06 Q1029

METARs EXPIRÉS :
  • 162200Z VRB01KT CAVOK 07/07 Q1029
  • 162100Z VRB01KT CAVOK 08/08 Q1029

TAF TAF LQSA
Valide du 17 à 00h jusqu'au 18 à 00h UTC


162300Z 1700/1724 VRB02KT CAVOK TX23/1714Z TN03/1704Z
TEMPO 1702/1708 3000 BR
PROB40 1704/1707 0500 FG BKN002
Pas de NOTAMs connus pour ce terrain.



MET'MAP, la Météo Aéronautique d'un coup d'oeil ! - Copyright ORBIFLY Décembre 2007 - Disclaimer

ORBIFLY MET'MAP TEAM :

Programmation & Développement : Alexandra Zaïnal
Conception & Développement : Baudouin d'Aumeries
Co-Programmation & Développement : Marc-Olivier Méhu
Soutien technique & logistique : Manuel Goepfert

Contact : metmap@orbifly.com




SOURCES & CREDITS :

   NOAA